Greenwood, SC

12:42 AM EDT on March 24, 2017 (GMT -0400)
Greenwood County

Weather History for KGRD - July, 2013

Change the Weather History Date:

Tuesday, July 9, 2013

  Actual Average (KAND) Record (KAND)
Temperature  
Mean Temperature 80 °F -  
Max Temperature 90 °F 91 °F 103 °F (1980)
Min Temperature 69 °F 69 °F 59 °F (1983)
Cooling Degree Days 14    
Growing Degree Days 30 (Base 50)    
Moisture  
Dew Point 71 °F    
Average Humidity 83    
Maximum Humidity 94    
Minimum Humidity 55    
Precipitation  
Precipitation 2.10 in - - ()
Sea Level Pressure  
Sea Level Pressure 30.15 in    
Wind  
Wind Speed 5 mph (SW)    
Max Wind Speed 15 mph    
Max Gust Speed 31 mph    
Visibility 8 miles    
Events Rain , Thunderstorm    
Averages and records for this station are not official NWS values.
T = Trace of Precipitation, MM = Missing Value Source: NWS Daily Summary

Daily Weather History Graph

Daily Weather History Graph

Search for Another Location

Airport or City:

Trip Planner

Search our weather history database for the weather conditions in past years. The results will help you decide how hot, cold, wet, or windy it might be!

Date:

Astronomy

Jul. 09, 2013 Rise Set
Actual Time 6:24 AM EDT 8:43 PM EDT
Civil Twilight 5:55 AM EDT 9:12 PM EDT
Nautical Twilight 5:20 AM EDT 9:47 PM EDT
Astronomical Twilight 4:41 AM EDT 10:25 PM EDT
Moon 7:41 AM EDT (7/9) 9:26 PM EDT (7/9)
Length of Visible Light 15h 16m
Length of Day
14h 18m
New Moon, 2% of the Moon is Illuminated
Jul 9
New Moon
Jul 15
First Quarter
Jul 22
Full
Jul 29
Last Quarter
Aug 6
New

Hourly Weather History & Observations

Time (EDT) Temp. Heat Index Dew Point Humidity Pressure Visibility Wind Dir Wind Speed Gust Speed Precip Events Conditions
12:56 AM 75.0 °F - 72.0 °F 90% 30.18 in 10.0 mi Calm Calm - N/A   Partly Cloudy
1:56 AM 73.9 °F - 71.1 °F 91% 30.17 in 9.0 mi West 3.5 mph - N/A   Partly Cloudy
2:53 AM 73.4 °F - 71.6 °F 94% 30.21 in 10.0 mi West 4.6 mph - N/A   Overcast
2:56 AM 73.9 °F - 72.0 °F 93% 30.19 in 10.0 mi West 6.9 mph - N/A   Overcast
3:04 AM 73.4 °F - 71.6 °F 94% 30.21 in 10.0 mi West 10.4 mph 21.9 mph N/A Thunderstorm Overcast
3:43 AM 69.8 °F - 68.0 °F 94% 30.18 in 10.0 mi WNW 4.6 mph - 0.14 in Rain Light Rain
3:56 AM 71.1 °F - 69.1 °F 93% 30.15 in 10.0 mi WNW 4.6 mph - 0.14 in Rain Light Rain
4:56 AM 71.1 °F - 69.1 °F 93% 30.14 in 10.0 mi North 3.5 mph - 0.00 in   Partly Cloudy
5:56 AM 71.1 °F - 69.1 °F 93% 30.15 in 10.0 mi Calm Calm - N/A   Clear
6:56 AM 71.1 °F - 69.1 °F 93% 30.16 in 10.0 mi South 5.8 mph - N/A   Clear
7:56 AM 73.0 °F - 71.1 °F 93% 30.17 in 10.0 mi WSW 4.6 mph - N/A   Clear
8:56 AM 77.0 °F - 72.0 °F 84% 30.18 in 10.0 mi SSW 6.9 mph - N/A   Clear
9:56 AM 80.1 °F 84.2 °F 73.0 °F 79% 30.17 in 10.0 mi Variable 4.6 mph - N/A   Partly Cloudy
10:47 AM 80.6 °F 85.4 °F 73.4 °F 79% 30.20 in 10.0 mi Variable 5.8 mph - N/A   Mostly Cloudy
10:56 AM 82.0 °F 87.9 °F 73.9 °F 76% 30.17 in 10.0 mi SSW 4.6 mph - N/A   Mostly Cloudy
11:08 AM 82.4 °F 88.2 °F 73.4 °F 74% 30.20 in 10.0 mi South 4.6 mph - N/A   Scattered Clouds
11:56 AM 84.0 °F 90.2 °F 73.0 °F 69% 30.18 in 10.0 mi Variable 4.6 mph - N/A   Scattered Clouds
12:56 PM 87.1 °F 94.5 °F 73.0 °F 63% 30.17 in 10.0 mi Calm Calm - N/A   Scattered Clouds
1:56 PM 88.0 °F 95.6 °F 73.0 °F 61% 30.15 in 10.0 mi SSW 4.6 mph - N/A   Mostly Cloudy
2:56 PM 88.0 °F 94.7 °F 72.0 °F 59% 30.12 in 10.0 mi SW 10.4 mph - N/A   Scattered Clouds
3:56 PM 86.0 °F 92.2 °F 72.0 °F 63% 30.10 in 10.0 mi South 8.1 mph - N/A   Mostly Cloudy
4:56 PM 90.0 °F 96.9 °F 72.0 °F 55% 30.08 in 10.0 mi South 9.2 mph - N/A   Mostly Cloudy
5:56 PM 88.0 °F 94.7 °F 72.0 °F 59% 30.06 in 10.0 mi South 9.2 mph - N/A   Partly Cloudy
6:56 PM 86.0 °F 92.2 °F 72.0 °F 63% 30.08 in 10.0 mi South 6.9 mph - N/A   Scattered Clouds
7:56 PM 82.9 °F 88.8 °F 73.0 °F 72% 30.07 in 10.0 mi SSW 5.8 mph - N/A   Mostly Cloudy
8:24 PM 82.4 °F 88.2 °F 73.4 °F 74% 30.09 in 10.0 mi South 4.6 mph - N/A Thunderstorm Mostly Cloudy
8:56 PM 80.1 °F 85.4 °F 75.9 °F 87% 30.07 in 10.0 mi SSE 5.8 mph - 0.01 in Thunderstorm Thunderstorm
9:27 PM 75.2 °F - 73.4 °F 94% 30.13 in 3.0 mi Variable 6.9 mph 19.6 mph 0.10 in Rain , Thunderstorm Heavy Thunderstorms and Rain
9:31 PM 75.2 °F - 73.4 °F 94% 30.13 in 2.5 mi NE 8.1 mph 19.6 mph 0.13 in Rain , Thunderstorm Heavy Thunderstorms and Rain
9:43 PM 73.4 °F - 71.6 °F 94% 30.14 in 3.0 mi NE 4.6 mph - 0.23 in Rain , Thunderstorm Heavy Thunderstorms and Rain
9:57 PM 73.4 °F - 71.6 °F 94% 30.18 in - Variable 3.5 mph - 0.51 in Rain , Thunderstorm Heavy Thunderstorms and Rain
10:13 PM 71.6 °F - 68.0 °F 88% 30.17 in 0.8 mi NNW 5.8 mph 31.1 mph 1.12 in Rain , Thunderstorm Heavy Thunderstorms and Rain
10:26 PM 69.8 °F - 68.0 °F 94% 30.17 in 1.5 mi WNW 6.9 mph 19.6 mph 1.38 in Rain , Thunderstorm Heavy Thunderstorms and Rain
10:38 PM 71.6 °F - 68.0 °F 88% 30.17 in 1.2 mi WSW 11.5 mph - 1.63 in Rain , Thunderstorm Heavy Thunderstorms and Rain
10:56 PM 71.1 °F - 69.1 °F 93% 30.16 in 2.0 mi SW 15.0 mph 20.7 mph 1.93 in Rain , Thunderstorm Heavy Thunderstorms and Rain
11:09 PM 71.6 °F - 69.8 °F 94% 30.16 in - North - - 0.02 in Thunderstorm Thunderstorm
11:56 PM - - - N/A% 30.13 in - North - - 0.02 in Thunderstorm Thunderstorm